Regional Weather Roundup
Issued by NWS

Home | Current Version | Previous Version | Text Only | Print | Product List | Glossary Off
Versions: 1 2 3 4 5 6 7 8 9 10 11 12 13 14 15 16 17 18 19 20 21 22 23 24 25 26 27 28 29 30 31 32 33 34 35 36 37 38 39 40 41 42 43 44 45 46 47 48 49 50

000
ASUS43 KLMK 290910
RWRKY
KENTUCKY REGIONAL WEATHER ROUNDUP
NATIONAL WEATHER SERVICE LOUISVILLE KY
400 AM EST MON DEC 29 2014

NOTE "FAIR" INDICATES FEW OR NO CLOUDS BELOW 12,000 FEET
WITH NO SIGNIFICANT WEATHER AND/OR OBSTRUCTIONS TO VISIBILITY.

KYZ001>023-026-027-061>063-070>075-291000-
WESTERN AND SOUTH CENTRAL KENTUCKY

CITY           SKY/WX    TMP DP  RH WIND       PRES   REMARKS
PADUCAH        CLOUDY    32  27  81 N9        30.22R WCI  24
HENDERSON      CLOUDY    32  25  74 NE8       30.23S WCI  25
OWENSBORO      CLOUDY    34  29  82 NE5       30.22S WCI  30
HOPKINSVILLE   CLOUDY    34  31  90 N8        30.18F WCI  27
BOWLING GREEN  CLOUDY    37  31  78 NE7       30.18S WCI  32
GLASGOW        CLOUDY    34  34 100 N6        30.17S FOG     WCI  29
$$

KYZ024-025-028>034-038-045-046-053-291000-
NORTH CENTRAL KENTUCKY

CITY           SKY/WX    TMP DP  RH WIND       PRES   REMARKS
LOUISVILLE/SDF CLOUDY    34  29  82 N8        30.21R WCI  27
LOUISVILLE/LOU CLOUDY    34  29  82 NE5       30.21S WCI  30
FORT KNOX      CLOUDY    33  29  86 N5        30.18S WCI  28
$$

KYZ035>037-039>044-047>052-055>060-089>105-291000-
NORTHEAST KENTUCKY

CITY           SKY/WX    TMP DP  RH WIND       PRES   REMARKS
LEXINGTON      PTCLDY    29  28  96 NE6       30.17F WCI  23
COVINGTON      MOCLDY    31  24  75 N9        30.21F WCI  23
FRANKFORT      CLEAR     30  27  88 N5        30.18S WCI  25
$$

KYZ054-064>069-076>088-106>120-291000-
SOUTHEAST KENTUCKY

CITY           SKY/WX    TMP DP  RH WIND       PRES   REMARKS
JACKSON        FOG       35  34  96 CALM      30.13F VSB 1/2
LONDON         CLOUDY    38  34  85 NE5       30.12F WCI  34
SOMERSET       CLOUDY    34  34 100 NE6       30.14F FOG     WCI  29
MIDDLESBORO    LGT RAIN  42  41  98 NE3       30.11F
MONTICELLO     CLOUDY    38  38 100 NE9       30.15F WCI  31
$$




USA.gov is the U.S. government's official web portal to all federal, state and local government web resources and services.